AirNav   Air Wisconsin Airman Trainee
 
 1147 users online  

0GE3 Lookout Mountain Airport
Trenton, Georgia, USA

GOING TO TRENTON?


FAA INFORMATION EFFECTIVE 25 APRIL 2019

Location

FAA Identifier: 0GE3
Lat/Long: 34-54-10.0900N / 085-27-37.4600W
34-54.168167N / 085-27.624333W
34.9028028 / -85.4604056
(estimated)
Elevation: 646 ft. / 197 m (estimated)
Variation: 03W (2000)
From city: 5 miles NE of TRENTON, GA
Time zone: UTC -4 (UTC -5 during Standard Time)
Zip code: 30757

Airport Operations

Airport use: Private use. Permission required prior to landing
Activation date: 03/2001
Control tower: no
ARTCC: ATLANTA CENTER
FSS: MACON FLIGHT SERVICE STATION
Attendance: THU-MON 0900-1800
Wind indicator: yes
Segmented circle: no

Airport Communications

WX ASOS at CHA (15 nm NE): 119.85 (423-499-5973)
WX AWOS-3 at 9A5 (15 nm SE): 119.775 (706-639-1976)

Nearby radio navigation aids

VOR radial/distance  VOR name  Freq  Var
GQOr256/15.5CHOO CHOO VORTAC115.8001E

 
NDB name  Hdg/Dist  Freq  Var  ID
DAISY225/21.734102WCQN -.-. --.- -.
FORT PAYNE029/25.242604WFTP ..-. - .--.

Airport Services

Runway Information

Runway 2/20

Dimensions: 2000 x 50 ft. / 610 x 15 m
Surface: turf
RUNWAY 2  RUNWAY 20
Latitude: 34-54.005500N34-54.330833N
Longitude: 085-27.656667W085-27.592000W
Elevation: 646.0 ft.646.0 ft.
Traffic pattern: leftleft
Obstructions: 50 ft. trees, 300 ft. from runway150 ft. gnd, 100 ft. from runway

Airport Ownership and Management from official FAA records

Ownership: Privately-owned
Owner: MATT TABER
7201 SCENIC HWY 189
RISING FAWN, GA 30738
Phone 706-398-3541
Manager: MATT TABER
7201 SCENIC HWY 189
RISING FAWN, GA 30738
Phone 706-398-3541

Airport Operational Statistics

Aircraft based on the field: 7
Single engine airplanes: 1
Gliders airplanes: 1
Ultralights: 5
    

Additional Remarks

1300 FT MOUNTAIN 1 NM SOUTHEAST OF RY.
FOR CD CTC CHATTANOOGA APCH AT 423-855-6478. IF UNA, CTC FSS.

Instrument Procedures

There are no published instrument procedures at 0GE3.

Some nearby airports with instrument procedures:

KAPT - Marion County Airport-Brown Field (11 nm NW)
KCHA - Lovell Field Airport (15 nm NE)
9A5 - Barwick Lafayette Airport (15 nm SE)
4A9 - Isbell Field Airport (29 nm SW)
4A6 - Scottsboro Municipal Airport-Word Field (30 nm SW)
 
Loc | Ops | Rwys | IFR | FBO | Links
Com | Nav | Svcs | Stats | Notes
Area around 0GE3 (Lookout Mountain Airport)
 
Road maps at: MapQuest Bing Google
 
Aerial photo
WARNING: Photo may not be current or correct
Aerial photo of 0GE3 (Lookout Mountain Airport)
Do you have a better or more recent aerial photo of Lookout Mountain Airport that you would like to share? If so, please send us your photo.

 
Sectional chart

 
Airport distance calculator
Flying to Lookout Mountain Airport? Find the distance to fly.

From to 0GE3

Sunrise and sunset
Times for 25-Apr-2019
 Local
(UTC-4)
 Zulu
(UTC)
Morning civil twilight06:3210:32
Sunrise06:5910:59
Sunset20:2100:21
Evening civil twilight20:4800:48

Current date and time
Zulu (UTC)  25-Apr-2019 23:00:07
Local (UTC-4)  25-Apr-2019 19:00:07
 
METAR
KCHA 
15nm NE 
252253Z 18007KT 10SM SCT046 OVC250 21/12 A2979 RMK AO2 WSHFT 2149 SLP083 T02110122
K9A5 
15nm SE 
252235Z AUTO 18004KT 10SM SCT060 BKN070 BKN090 19/13 A2983 RMK AO2 T01930130
KDNN 
20nm SE 
252235Z AUTO 17005KT 10SM CLR 22/14 A2983 RMK AO2
K4A9 
29nm SW 
252235Z AUTO 18004KT 10SM SCT075 SCT090 BKN110 18/15 A2981 RMK AO2 T01770155
K4A6 
30nm SW 
252255Z AUTO VRB04KT 10SM CLR 18/18 A2977 RMK AO2
TAF
KCHA 
15nm NE 
251722Z 2518/2618 19010KT P6SM SCT025 BKN040 BKN120 FM252100 19010KT P6SM VCTS BKN035CB OVC040 FM260100 18010KT 5SM -SHRA VCTS BKN020CB OVC040 FM260600 21010KT 5SM -SHRA BKN010 OVC025 FM261000 25008KT P6SM VCSH SCT010 BKN025 FM261600 32012G20KT P6SM BKN015
NOTAMs
Click for the latest NOTAMs
NOTAMs are issued by the DoD/FAA and will open in a separate window not controlled by AirNav.

 

 
 

Would you like to see your business listed on this page?

 If your business provides an interesting product or service to pilots, flight crews, aircraft, or users of the Lookout Mountain Airport, you should consider listing it here.  To start the listing process, click on the button below
 
Add a business
 

Other Pages about Lookout Mountain Airport

www.hangglide.com
 
Update a link
 
Copyright © AirNav, LLC. All rights reserved. Privacy Policy  Contact